Weather History for Annapolis Naval Academy, MD

Change the Weather History Date:

Monday, December 24, 2012

  Actual Average (KBWI) Record (KBWI)
Temperature  
Mean Temperature 37 °F 35 °F  
Max Temperature 41 °F 43 °F 65 °F (1982)
Min Temperature 33 °F 26 °F 4 °F (1983)
Degree Days  
Heating Degree Days 28 30  
Month to date heating degree days 660  
Since 1 July heating degree days 1564  
Cooling Degree Days 0 0  
Month to date cooling degree days 0  
Year to date cooling degree days 1164  
Moisture  
Dew Point 33 °F    
Average Humidity 79    
Maximum Humidity 93    
Minimum Humidity 60    
Precipitation  
Precipitation 0.14 in 0.11 in 2.49 in (1986)
Month to date precipitation 2.69  
Year to date precipitation 41.20  
Snow  
Snow 0.00 in 0.10 in 8.40 in (1966)
Month to date snowfall 2.1  
Since 1 July snowfall 2.5  
Snow Depth -    
Sea Level Pressure  
Sea Level Pressure 30.00 in    
Wind  
Wind Speed 4 mph (ENE)    
Max Wind Speed 9 mph    
Max Gust Speed -    
Visibility 6 miles    
Events Rain    
T = Trace of Precipitation, MM = Missing Value Source: NWS Daily Summary

Daily Weather History Graph

Daily Weather History Graph

Search for Another Location

Airport:

Trip Planner

Search our weather history database for the weather conditions in past years. The results will help you decide how hot, cold, wet, or windy it might be!

Date:

Astronomy

Dec. 24, 2012 Rise Set
Actual Time 7:22 AM EST 4:48 PM EST
Civil Twilight 6:52 AM EST 5:18 PM EST
Nautical Twilight 6:19 AM EST 5:52 PM EST
Astronomical Twilight 5:46 AM EST 6:25 PM EST
Moon 2:14 PM EST (12/24) 3:59 AM EST (12/24)
Length of Visible Light 10h 26m
Length of Day
9h 26m
Waxing Gibbous, 88% of the Moon is Illuminated
Dec 24
Waxing Gibbous
Dec 28
Full
Jan 4
Last Quarter
Jan 11
New
Jan 18
First Quarter

Hourly Weather History & Observations

Time (EST) Temp. Windchill Dew Point Humidity Pressure Visibility Wind Dir Wind Speed Gust Speed Precip Events Conditions
12:54 AM 33.1 °F - 24.1 °F 70% 30.00 in 10.0 mi Calm Calm - N/A   Clear
1:54 AM 35.1 °F - 28.0 °F 76% 30.01 in 9.0 mi Calm Calm - N/A   Clear
2:54 AM 37.0 °F 34.5 °F 32.0 °F 82% 30.02 in 10.0 mi NNW 3.5 mph - N/A   Clear
3:54 AM 37.9 °F - 28.9 °F 70% 30.03 in 10.0 mi Calm Calm - N/A   Clear
4:54 AM 39.0 °F 34.8 °F 30.9 °F 73% 30.03 in 10.0 mi North 5.8 mph - N/A   Clear
5:54 AM 39.9 °F 36.7 °F 28.9 °F 65% 30.05 in 10.0 mi North 4.6 mph - N/A   Clear
6:54 AM 39.0 °F - 27.0 °F 62% 30.07 in 10.0 mi Calm Calm - N/A   Clear
7:54 AM 39.0 °F 34.8 °F 28.0 °F 65% 30.08 in 10.0 mi ESE 5.8 mph - N/A   Clear
8:54 AM 39.0 °F 34.0 °F 27.0 °F 62% 30.08 in 10.0 mi East 6.9 mph - N/A   Clear
9:54 AM 39.9 °F 33.9 °F 27.0 °F 60% 30.11 in 10.0 mi ESE 9.2 mph - N/A   Clear
10:54 AM 39.9 °F 34.5 °F 28.0 °F 63% 30.11 in 10.0 mi ESE 8.1 mph - N/A   Clear
11:54 AM 41.0 °F 36.4 °F 28.0 °F 60% 30.08 in 10.0 mi ESE 6.9 mph - N/A   Overcast
12:54 PM 41.0 °F 35.8 °F 30.0 °F 65% 30.06 in 9.0 mi SSE 8.1 mph - 0.00 in Rain Light Rain
1:42 PM 39.9 °F 34.5 °F 33.1 °F 77% 30.02 in 6.0 mi ESE 8.1 mph - 0.00 in Rain Light Rain
1:54 PM 39.9 °F 33.9 °F 34.0 °F 79% 30.03 in 7.0 mi SE 9.2 mph - 0.00 in Rain Light Rain
2:19 PM 39.0 °F 32.8 °F 34.0 °F 82% 30.01 in 6.0 mi ESE 9.2 mph - 0.01 in Rain Light Rain
2:54 PM 39.0 °F 33.4 °F 35.1 °F 86% 30.01 in 4.0 mi East 8.1 mph - 0.03 in Rain Light Rain
3:54 PM 37.9 °F 31.5 °F 35.1 °F 89% 29.98 in 3.0 mi East 9.2 mph - 0.05 in Rain Light Rain
4:01 PM 37.9 °F 31.5 °F 35.1 °F 89% 29.97 in 2.5 mi East 9.2 mph - 0.00 in Rain Light Rain
4:08 PM 37.9 °F 32.1 °F 35.1 °F 89% 29.96 in 3.0 mi ENE 8.1 mph - 0.01 in Rain Light Rain
4:32 PM 37.9 °F 31.5 °F 35.1 °F 89% 29.95 in 4.0 mi East 9.2 mph - 0.02 in Rain Light Rain
4:54 PM 37.9 °F 31.5 °F 35.1 °F 89% 29.96 in 4.0 mi East 9.2 mph - 0.03 in Rain Light Rain
5:54 PM 39.0 °F 36.8 °F 36.0 °F 89% 29.96 in 6.0 mi East 3.5 mph - 0.01 in   Overcast
6:54 PM 39.0 °F 36.8 °F 36.0 °F 89% 29.94 in 4.0 mi NNE 3.5 mph - 0.02 in Rain Light Rain
7:54 PM 39.9 °F - 37.0 °F 89% 29.94 in 4.0 mi Calm Calm - 0.00 in   Overcast
8:54 PM 39.9 °F - 37.0 °F 89% 29.92 in 3.0 mi Calm Calm - N/A   Overcast
9:54 PM 39.9 °F 37.8 °F 37.0 °F 89% 29.93 in 4.0 mi North 3.5 mph - N/A   Overcast
10:11 PM 39.9 °F - 37.9 °F 93% 29.91 in 2.5 mi Calm Calm - N/A   Overcast
10:45 PM 39.9 °F 37.8 °F 37.9 °F 93% 29.91 in 3.0 mi North 3.5 mph - N/A   Overcast
10:54 PM 39.9 °F - 37.9 °F 93% 29.91 in 3.0 mi Calm Calm - N/A   Overcast
11:54 PM 39.9 °F 36.7 °F 37.9 °F 93% 29.91 in 3.0 mi North 4.6 mph - N/A   Overcast